Location: Holbach
(51.5399°N, 10.6036°E)
Time: 16:08:46
(UTC+00:00)

ATLAS 3B R/B - Pass Details

Date: 18 September 2020
Orbit: 1016 x 1179 km, 63.8° (Epoch: 04 October)

Event Time Altitude Azimuth Distance (km) Brightness Sun altitude
Rises 21:21:21 0° 315° (NW) 3,830 6.7 -32.1°
Reaches altitude 10° 21:23:59 10° 311° (NW) 2,893 5.8 -32.4°
Enters shadow 21:30:03 54° 255° (WSW) 1,299 3.1 -32.9°
